Weather in Ustreka

Russia / Novgorod Oblast     58°37′47″N   34°32′51″E
temp.,
°C
wind,
m/s
gust,
m/s
humid.,
%
clouds,
%
prec.,
mm/h
press.,
hPa
HPBL,
m
3 march, wed
wed300:00−5nw311890 0.0 1015356
03:00−5wnw310940 0.0 1016357
06:00−2wnw399275 0.1 1015728
09:00−2wnw5108988 0.1 1014868
12:00−1w5988100 0.0 1012741
15:00−1w51088100 0.1 1010925
18:000w51388100 0.1 10071172
21:00−1w51293100 0.4 1004931
4 march, thu
thu400:000wnw51186100 0.8 10011069
03:00−2wnw4118895 0.9 1001819
06:00−6nw4128827 0.0 1001564
09:00−6nw499051 0.0 1002529
12:00−3nw358198 0.0 1002690
15:00−3nnw357997 0.1 1002824
18:00−5nw2588100 0.1 1002243
21:00−7nw229495 0.1 100343
5 march, fri
fri500:00−7nw2397100 0.1 1003104
03:00−8nw2695100 0.3 1005279
06:00−8nw2794100 0.3 1006357
09:00−8nw378998 0.4 1007472
12:00−6nw367998 0.0 1008848
15:00−5nw467799 0.1 10101029
18:00−8nnw388497 0.1 1011469
21:00−11nnw289490 0.2 1014320
6 march, sat
sat600:00−13nw249551 0.0 1015135
03:00−13w229325 0.0 101640
06:00−12wsw289478 0.0 1016296
09:00−9w379088 0.1 1015544
12:00−7w3678100 0.0 1014883
15:00−5wsw4773100 0.1 10121142
18:00−6sw41077100 0.1 10081110
21:00−6sw71591100 0.6 10021283
7 march, sun
sun700:00−5sw71593100 1.4 9961234
03:00−3sw81693100 2.9 9901158
06:00−2sw81692100 1.4 9861369
09:00−9w41468100 2.4 9871258
12:00−8w378933 0.3 988693
15:00−7w598667 1.0 9881099
18:00−8wnw3887100 0.6 987544
21:00−9nw2696100 0.9 989357